EW3232 Weather Reports


time (UTC)temp
C
wind
direction
speed
KPH
gust
KPH
rain 1hr
cm
rain 24hr
cm
rain mn
cm
humidity
%
barometer
mb
20260502194520 13 106 4.8 12.9 0.00 1.14 0.94 94 1017.9
20260502191632 13 60 3.2 11.3 0.00 1.14 0.94 95 1017.6
20260502190104 13 56 3.2 9.7 0.00 1.14 0.94 95 1017.9
20260502184545 13 77 4.8 11.3 0.00 1.30 0.94 95 1017.7
20260502181640 14 86 4.8 11.3 0.00 1.30 0.94 95 1017.8
20260502170150 14 77 6.4 14.5 0.00 1.32 0.94 96 1018.5
20260502163029 14 11 6.4 16.1 0.00 1.32 0.94 96 1018.3
20260502161528 14 71 8.0 19.3 0.00 1.32 0.94 96 1018.5
20260502160112 14 85 9.7 19.3 0.03 1.32 0.94 96 1018.4
20260502151505 14 67 11.3 17.7 0.05 1.32 0.94 96 1018.6
20260502150139 14 85 12.9 17.7 0.05 1.30 0.91 96 1018.9
20260502130148 14 68 9.7 17.7 0.00 1.22 0.84 94 1020.6
20260502123107 14 92 8.0 16.1 0.00 1.22 0.84 94 1020.8
20260502121558 14 83 8.0 16.1 0.00 1.22 0.84 93 1020.9
20260502113136 15 85 6.4 14.5 0.00 1.22 0.84 93 1021.0
20260502111607 15 58 12.9 19.3 0.00 1.22 0.84 93 1021.1
20260502104633 14 79 11.3 17.7 0.00 1.22 0.84 94 1021.5
20260502103056 14 51 14.5 20.9 0.00 1.22 0.84 94 1021.7
20260502101539 14 101 8.0 19.3 0.00 1.22 0.84 95 1021.8
20260502090123 14 91 11.3 17.7 0.33 1.12 0.71 95 1021.5
20260502070117 14 359 0.0 3.2 0.15 0.84 0.41 95 1021.5
20260502064632 14 72 0.0 3.2 0.05 0.71 0.30 95 1021.5
20260502061615 14 90 0.0 3.2 0.05 0.71 0.30 95 1021.5
20260502060035 14 245 0.0 3.2 0.00 0.71 0.25 95 1021.4
20260502054524 14 245 0.0 3.2 0.00 0.71 0.25 95 1021.2
20260502051527 13 245 0.0 3.2 0.00 0.71 0.25 95 1021.1
20260502050138 13 245 0.0 3.2 0.00 0.71 0.25 95 1021.2
20260502044637 13 245 1.6 1.6 0.00 0.71 0.25 95 1021.1
20260502043108 13 245 1.6 3.2 0.00 0.71 0.25 94 1020.9
20260502041637 13 137 0.0 3.2 0.00 0.71 0.25 94 1021.1
20260502040017 13 19 0.0 3.2 0.00 0.71 0.25 94 1021.2
20260502034555 14 19 0.0 3.2 0.00 0.71 0.25 94 1021.2
20260502033057 14 19 0.0 3.2 0.00 0.71 0.25 94 1021.3
20260502031549 14 19 0.0 3.2 0.00 0.71 0.25 94 1021.4
20260502030006 14 19 0.0 0.0 0.00 0.71 0.25 94 1021.3
20260502024514 14 19 0.0 6.4 0.00 0.71 0.25 94 1021.4
20260502023135 14 25 4.8 6.4 0.00 0.71 0.25 94 1021.3
20260502021633 13 43 3.2 6.4 0.00 0.71 0.25 94 1021.5
20260502020111 13 4 3.2 9.7 0.00 0.71 0.25 94 1021.6
20260502014612 13 360 3.2 8.0 0.00 0.71 0.25 94 1021.7
20260502013119 13 52 1.6 9.7 0.00 0.71 0.25 94 1021.9
20260502011512 13 52 3.2 8.0 0.03 0.71 0.25 94 1022.0
20260502010139 14 81 3.2 16.1 0.03 0.71 0.25 95 1022.0
20260502004604 14 59 6.4 11.3 0.03 0.76 0.25 95 1022.2
20260502003034 14 33 8.0 17.7 0.03 0.76 0.25 95 1022.3
20260502001610 14 64 3.2 9.7 0.23 0.71 0.23 95 1022.4
20260502000122 14 26 8.0 12.9 0.23 0.71 0.23 95 1022.6
20260501234509 14 49 4.8 11.3 0.23 0.71 0.23 95 1022.9
20260501233019 14 71 3.2 9.7 0.23 0.71 0.23 94 1022.8
20260501231606 14 63 0.0 3.2 0.03 0.51 0.03 94 1022.8
20260501230101 14 63 0.0 3.2 0.00 0.51 0.00 94 1022.9
20260501224510 14 9 1.6 6.4 0.00 0.51 0.00 94 1023.0
20260501223115 14 38 1.6 8.0 0.00 0.51 0.00 94 1023.0
20260501221600 14 342 1.6 6.4 0.03 0.51 0.00 95 1023.1
20260501220006 14 16 3.2 8.0 0.03 0.51 0.51 95 1023.2
20260501214608 14 58 6.4 14.5 0.03 0.51 0.51 95 1023.3
20260501213058 14 30 6.4 14.5 0.05 0.51 0.51 95 1023.3
20260501211539 14 31 3.2 6.4 0.03 0.48 0.48 95 1023.3
20260501204558 14 85 1.6 3.2 0.03 0.48 0.48 95 1023.4
20260501203005 14 109 1.6 3.2 0.03 0.46 0.46 94 1023.3
20260501201505 14 82 0.0 4.8 0.08 0.46 0.46 94 1023.1
20260501200043 14 42 1.6 4.8 0.15 0.46 0.46 94 1023.0